Previsão horária em Ablyazovo

Hoje, 11 Abril, Domingo

Tempo Temperatura Precipitação Vento Pressão Humidade
00:00 +2°C° 0 mm 6 m/s 762 mmHg 79%
01:00 +1°C° 0 mm 6 m/s 762 mmHg 76%
02:00 +1°C° 0 mm 6 m/s 762 mmHg 77%
03:00 +1°C° 0 mm 5 m/s 762 mmHg 77%
04:00 0°C° 0 mm 5 m/s 763 mmHg 79%
05:00 0°C° 0 mm 5 m/s 763 mmHg 82%
06:00 0°C° 0 mm 5 m/s 763 mmHg 84%
07:00 -1°C° 0 mm 6 m/s 763 mmHg 86%
08:00 +1°C° 0 mm 6 m/s 763 mmHg 86%
09:00 +2°C° 0 mm 6 m/s 763 mmHg 86%
10:00 +4°C° 0 mm 6 m/s 764 mmHg 86%
11:00 +5°C° 0 mm 6 m/s 763 mmHg 81%
12:00 +7°C° 0 mm 6 m/s 763 mmHg 77%
13:00 +9°C° 0 mm 6 m/s 763 mmHg 73%
14:00 +9°C° 0 mm 6 m/s 763 mmHg 72%
15:00 +9°C° 0 mm 6 m/s 763 mmHg 72%
16:00 +9°C° 0 mm 6 m/s 763 mmHg 72%
17:00 +8°C° 0 mm 5 m/s 763 mmHg 78%
18:00 +7°C° 0 mm 4 m/s 763 mmHg 84%
19:00 +5°C° 0 mm 4 m/s 763 mmHg 90%
20:00 +5°C° 0 mm 4 m/s 763 mmHg 91%
21:00 +4°C° 0 mm 3 m/s 763 mmHg 93%
22:00 +3°C° 0 mm 3 m/s 763 mmHg 94%
23:00 +3°C° 0 mm 3 m/s 763 mmHg 92%

Amanhã, 12 Abril, Segunda-feira

Tempo Temperatura Precipitação Vento Pressão Humidade
00:00 +2°C° 0 mm 3 m/s 763 mmHg 91%
01:00 +3°C° 0 mm 2 m/s 763 mmHg 90%
02:00 +3°C° 0 mm 2 m/s 764 mmHg 88%
03:00 +3°C° 0 mm 2 m/s 764 mmHg 85%
04:00 +2°C° 0 mm 2 m/s 764 mmHg 83%
05:00 +3°C° 0 mm 2 m/s 764 mmHg 79%
06:00 +3°C° 0 mm 2 m/s 764 mmHg 75%
07:00 +5°C° 0 mm 1 m/s 764 mmHg 71%
08:00 +6°C° 0 mm 2 m/s 764 mmHg 64%
09:00 +8°C° 0 mm 2 m/s 764 mmHg 56%
10:00 +10°C° 0 mm 2 m/s 764 mmHg 49%
11:00 +12°C° 0 mm 2 m/s 764 mmHg 46%
12:00 +14°C° 0 mm 2 m/s 764 mmHg 44%
13:00 +15°C° 0 mm 2 m/s 764 mmHg 41%
14:00 +15°C° 0 mm 2 m/s 763 mmHg 42%
15:00 +15°C° 0 mm 2 m/s 763 mmHg 42%
16:00 +16°C° 0 mm 2 m/s 763 mmHg 43%
17:00 +14°C° 0 mm 2 m/s 763 mmHg 47%
18:00 +12°C° 0 mm 2 m/s 763 mmHg 54%
19:00 +10°C° 0 mm 2 m/s 763 mmHg 61%
20:00 +9°C° 0 mm 2 m/s 763 mmHg 63%
21:00 +8°C° 0 mm 2 m/s 764 mmHg 66%
22:00 +8°C° 0 mm 2 m/s 764 mmHg 68%
23:00 +7°C° 0 mm 2 m/s 764 mmHg 69%

Depois de amanhã, 13 Abril, Terça-feira

Tempo Temperatura Precipitação Vento Pressão Humidade
00:00 +6°C° 0 mm 2 m/s 764 mmHg 69%
01:00 +6°C° 0 mm 2 m/s 764 mmHg 69%
02:00 +5°C° 0 mm 2 m/s 764 mmHg 70%
03:00 +5°C° 0 mm 2 m/s 765 mmHg 71%
04:00 +4°C° 0 mm 2 m/s 765 mmHg 72%
05:00 +5°C° 0 mm 2 m/s 765 mmHg 73%
06:00 +5°C° 0 mm 2 m/s 765 mmHg 73%
07:00 +5°C° 0 mm 2 m/s 765 mmHg 73%
08:00 +7°C° 0 mm 3 m/s 765 mmHg 66%
09:00 +8°C° 0 mm 4 m/s 765 mmHg 60%
10:00 +10°C° 0 mm 5 m/s 766 mmHg 53%
11:00 +13°C° 0 mm 5 m/s 765 mmHg 50%
12:00 +14°C° 0 mm 5 m/s 765 mmHg 47%
13:00 +15°C° 0 mm 5 m/s 765 mmHg 44%
14:00 +16°C° 0 mm 5 m/s 764 mmHg 45%
15:00 +16°C° 0 mm 5 m/s 764 mmHg 47%
16:00 +16°C° 0 mm 5 m/s 764 mmHg 48%
17:00 +15°C° 0 mm 5 m/s 764 mmHg 58%
18:00 +13°C° 0 mm 5 m/s 764 mmHg 68%
19:00 +10°C° 0 mm 5 m/s 764 mmHg 77%
20:00 +10°C° 0 mm 4 m/s 764 mmHg 81%
21:00 +8°C° 0 mm 4 m/s 764 mmHg 85%
22:00 +8°C° 0 mm 3 m/s 764 mmHg 89%
23:00 +8°C° 0 mm 3 m/s 763 mmHg 89%

14 Abril, Quarta-feira

Tempo Temperatura Precipitação Vento Pressão Humidade
00:00 +8°C° 0 mm 2 m/s 763 mmHg 90%
01:00 +7°C° 0 mm 2 m/s 763 mmHg 90%
02:00 +7°C° 0 mm 2 m/s 763 mmHg 91%
03:00 +6°C° 0 mm 2 m/s 763 mmHg 91%
04:00 +6°C° 0 mm 2 m/s 762 mmHg 92%
05:00 +6°C° 0 mm 2 m/s 762 mmHg 91%
06:00 +6°C° 0 mm 2 m/s 762 mmHg 89%
07:00 +7°C° 0 mm 2 m/s 762 mmHg 88%
08:00 +9°C° 0 mm 3 m/s 762 mmHg 81%
09:00 +10°C° 0 mm 3 m/s 761 mmHg 73%
10:00 +12°C° 0 mm 4 m/s 761 mmHg 66%
11:00 +14°C° 0 mm 4 m/s 761 mmHg 60%
12:00 +15°C° 0 mm 4 m/s 760 mmHg 53%
13:00 +17°C° 0 mm 5 m/s 759 mmHg 47%
14:00 +17°C° 0 mm 5 m/s 759 mmHg 44%
15:00 +17°C° 0 mm 5 m/s 759 mmHg 41%
16:00 +17°C° 0 mm 5 m/s 758 mmHg 38%
17:00 +17°C° 0 mm 4 m/s 758 mmHg 43%
18:00 +14°C° 0 mm 4 m/s 758 mmHg 48%
19:00 +13°C° 0 mm 3 m/s 758 mmHg 54%
20:00 +12°C° 0 mm 3 m/s 758 mmHg 57%
21:00 +11°C° 0 mm 3 m/s 757 mmHg 60%
22:00 +10°C° 0 mm 3 m/s 757 mmHg 64%
23:00 +9°C° 0 mm 3 m/s 757 mmHg 66%

15 Abril, Quinta-feira

Tempo Temperatura Precipitação Vento Pressão Humidade
00:00 +8°C° 0 mm 3 m/s 757 mmHg 68%
01:00 +8°C° 0 mm 3 m/s 757 mmHg 70%
02:00 +7°C° 0 mm 2 m/s 757 mmHg 71%
03:00 +7°C° 0 mm 2 m/s 756 mmHg 72%
04:00 +7°C° 0 mm 2 m/s 756 mmHg 74%
05:00 +7°C° 0 mm 2 m/s 756 mmHg 72%
06:00 +8°C° 0 mm 2 m/s 756 mmHg 70%
07:00 +8°C° 0 mm 2 m/s 756 mmHg 68%
08:00 +10°C° 0 mm 2 m/s 756 mmHg 60%
09:00 +12°C° 0 mm 3 m/s 756 mmHg 52%
10:00 +14°C° 0 mm 4 m/s 755 mmHg 44%
11:00 +17°C° 0 mm 4 m/s 755 mmHg 40%
12:00 +18°C° 0 mm 4 m/s 755 mmHg 36%
13:00 +19°C° 0 mm 4 m/s 754 mmHg 32%
14:00 +20°C° 0 mm 4 m/s 754 mmHg 32%
15:00 +20°C° 0 mm 4 m/s 753 mmHg 31%
16:00 +20°C° 0 mm 4 m/s 753 mmHg 30%
17:00 +19°C° 0 mm 3 m/s 753 mmHg 35%
18:00 +17°C° 0 mm 2 m/s 752 mmHg 41%
19:00 +16°C° 0 mm 2 m/s 752 mmHg 46%
20:00 +15°C° 0 mm 2 m/s 752 mmHg 48%
21:00 +14°C° 0 mm 2 m/s 752 mmHg 50%
22:00 +13°C° 0 mm 2 m/s 752 mmHg 52%
23:00 +12°C° 0 mm 2 m/s 752 mmHg 54%

16 Abril, Sexta-feira

Tempo Temperatura Precipitação Vento Pressão Humidade
00:00 +12°C° 0 mm 2 m/s 751 mmHg 56%
01:00 +10°C° 0 mm 2 m/s 751 mmHg 58%
02:00 +10°C° 0 mm 2 m/s 751 mmHg 60%
03:00 +10°C° 0 mm 1 m/s 751 mmHg 61%
04:00 +10°C° 0 mm 1 m/s 750 mmHg 62%
05:00 +10°C° 0 mm 1 m/s 750 mmHg 61%
06:00 +10°C° 0 mm 1 m/s 750 mmHg 61%
07:00 +11°C° 0 mm 1 m/s 750 mmHg 60%
08:00 +13°C° 0 mm 1 m/s 750 mmHg 54%
09:00 +15°C° 0 mm 2 m/s 749 mmHg 47%
10:00 +17°C° 0 mm 2 m/s 749 mmHg 41%
11:00 +18°C° 0 mm 2 m/s 749 mmHg 38%
12:00 +19°C° 0 mm 2 m/s 748 mmHg 35%
13:00 +20°C° 0 mm 2 m/s 748 mmHg 32%
14:00 +20°C° 0 mm 2 m/s 747 mmHg 31%
15:00 +20°C° 0 mm 3 m/s 747 mmHg 30%
16:00 +21°C° 0 mm 3 m/s 746 mmHg 30%
17:00 +19°C° 0 mm 3 m/s 746 mmHg 35%
18:00 +18°C° 0 mm 3 m/s 746 mmHg 41%
19:00 +17°C° 0 mm 2 m/s 745 mmHg 46%
20:00 +15°C° 0 mm 4 m/s 745 mmHg 52%
21:00 +14°C° 0 mm 5 m/s 745 mmHg 58%
22:00 +13°C° 0 mm 6 m/s 745 mmHg 63%
23:00 +10°C° 0.1 mm 6 m/s 745 mmHg 69%
Mostrar mais